User: anonymous
Location: Albany
(35.0000°S, 118.0000°E)
Time: 12:32:33
(UTC-04:00)
Language:

Centaur D-1AR AC-48 - Orbit

View from above orbital plane
View from above orbital plane
View from above satellite
View from above satellite

Ground track
Ground track

The orbit data is extracted from the following two-line orbital elements,

1 10779U 78035B   14230.93909612 -.00000295  00000-0 -21416-3 0  9238
2 10779 021.5429 067.9165 7178718 096.0207 097.1138 02.22633932295676
Epoch (UTC): 18 August 2014 22:32:17
Eccentricity: 0.7178718
inclination: 21.5429°
perigee height: 611 km
apogee height: 36181 km
right ascension of ascending node: 67.9165°
argument of perigee: 96.0207°
revolutions per day: 2.22633932
mean anomaly at epoch: 97.1138°
orbit number at epoch: 29567

The dashed part of the orbit path shows where the satellite is in the earth's shadow,  

DLR